Regional Weather Roundup
Issued by NWS New Orleans/Baton Rouge, LA

Home | Current Version | Previous Version | Graphics & Text | Print | Product List | Glossary On
Versions: 1 2 3 4 5 6 7 8 9 10 11 12 13 14 15 16 17 18 19 20 21 22 23 24 25 26 27 28 29 30 31 32 33 34 35 36 37 38 39 40 41 42 43 44 45 46 47 48 49 50
498
ASUS44 KLIX 200205
RWRLIX
NEW ORLEANS REGIONAL WEATHER ROUNDUP
NATIONAL WEATHER SERVICE NEW ORLEANS LA
900 PM CDT SAT APR 19 2014

NOTE: "FAIR" INDICATES FEW OR NO CLOUDS BELOW 12,000 FEET WITH NO
      SIGNIFICANT WEATHER AND/OR OBSTRUCTIONS TO VISIBILITY.
      SKY/WX - SKY CONDITION AND SIGNIFICANT WEATHER.
      TMP - AIR TEMPERATURE.     DP    - DEWPOINT TEMPERATURE.
      RH  - RELATIVE HUMIDITY.   PRES  - PRESSURE.
      HI  - HEAT INDEX.          WCI   - WIND CHILL INDEX.

*  THESE STATIONS ARE NOT NWS OR FAA STATIONS AND ARE NOT UNDER
   NWS QUALITY CONTROL.

LAZ038-040-048-061>063-065>067-069-200300-
SOUTHEAST LOUISIANA

CITY           SKY/WX    TMP DP  RH WIND       PRES   REMARKS
N.O. AUDUBON     N/A     70  53  53 MISG        N/A
N.O. INTL ARPT PTCLDY    68  55  63 NW3       30.11R
N.O. LAKEFRONT CLEAR     69  63  81 W5        30.12R
N.O. DOWNTOWN*   N/A     75  50  41 CALM      30.12R
SLIDELL        CLEAR     63  56  78 CALM      30.10R
BATON ROUGE    CLEAR     66  56  70 CALM      30.12R
BOOTHVILLE     CLEAR     66  62  87 W6        30.11R
BELLE CHASSE   PTCLDY    61  55  81 CALM      30.11R
BOGALUSA*        N/A     63  55  75 CALM      30.13R
GALLIANO*      CLEAR     65  60  82 CALM      30.12R
NEW ROADS*       N/A     67  53  61 CALM      30.12S
GONZALES*        N/A     65  57  75 CALM      30.11R
HAMMOND*       CLEAR     63  55  77 CALM      30.13R
HOUMA*           N/A     65  59  80 CALM      30.11R
PORT FOURCHON* CLEAR     68  59  73 W7        30.13S

$$

MSZ070-080>082-200300-
SOUTHERN MISSISSIPPI

CITY           SKY/WX    TMP DP  RH WIND       PRES   REMARKS
MCCOMB         CLEAR     62  52  69 CALM      30.13R
GULFPORT       CLEAR     67  56  67 NW3       30.10R
BILOXI         CLEAR     68  53  58 NW3       30.10R
PASCAGOULA     CLEAR     61  58  90 CALM      30.10R

$$

COASTAL OBSERVATIONS
LAKE AND NEARSHORE STATIONS

STATION/POSITION TIME  TEMP    WIND        PRES    WAVE
                       AIR SEA DIR/SP/G            HT/PER
                 (UTC) (F)     (DEG/KT/KT) (MB)    (FT/S)
PASCAGOULA       0200   69     330/  5/  6 1018.6
WAVELAND YACHT   0200   71 70  340/  3/  3 1018.7
GRAND ISLE       0200   69 68  280/ 10/ 13 1020.3
SOUTHWEST PASS   0200   66 59  300/  7/ 10 1019.7
NEW CANAL        0200   73 67  310/  3/  4 1020.0
SHELL BEACH      0200   71 66  300/  6/  6 1019.3

OFFSHORE STATIONS

STATION/POSITION TIME  TEMP    WIND        PRES    WAVE
                       AIR SEA DIR/SP/G            HT/PER
                 (UTC) (F)     (DEG/KT/KT) (MB)    (FT/S)
64 S DAUPHIN ISL 0122   70 71  310/ 12/ 16 1019.3

$$




USA.gov is the U.S. government's official web portal to all federal, state and local government web resources and services.